Location: Asar Burnu
(36.5203°N, 30.5523°E)
Time: 09:51:01
(UTC+00:00)

NOSS 2-1 (D) - Pass Details

Date: 04 August 2024
Orbit: 384 x 1731 km, 63.3° (Epoch: 14 September)

Event Time Altitude Azimuth Distance (km) Brightness Sun altitude
Rises 18:15:52 0° 211° (SSW) 2,916 7.0 -14.2°
Reaches altitude 10° 18:18:25 10° 211° (SSW) 1,831 5.9 -14.6°
Maximum altitude 18:22:21 90° 296° (WNW) 464 2.9 -15.3°
Drops below altitude 10° 18:25:31 10° 32° (NNE) 1,478 5.6 -15.8°
Sets 18:27:24 0° 32° (NNE) 2,292 6.5 -16.1°
